CAPE
0 0 272 1119 1252 999 1041 842 677 536 406 284 46 5 2 3 7 16 14 8 16 77 35 35 1 5 6 3 1 0 0 0 0 0 0 0 0 0 0 0 0 0 0
0 0 0 624 1499 1176 1064 1082 888 555 439 264 10 25 38 3 14 42 31 7 16 26 23 22 5 1 0 5 0 0 0 0 0 0 0 0 0 0 0 0 0 0 0
0 0 0 0 1544 1368 957 1014 934 663 395 145 68 45 91 50 45 44 33 3 16 83 36 28 4 0 0 0 0 0 0 0 0 0 0 0 0 0 0 0 0 0 0
0 0 0 0 121 1258 1476 1108 920 662 357 120 102 63 4 2 16 8 107 14 20 113 102 75 8 1 0 0 0 0 0 0 0 0 0 0 0 0 0 0 0 0 0
0 0 0 0 0 582 1544 1394 1092 606 339 161 186 155 57 33 45 40 58 143 127 92 128 65 13 5 3 0 0 0 0 0 0 0 0 0 0 0 0 0 0 0 0
0 0 0 0 0 43 847 1436 1166 669 360 225 269 217 124 53 47 38 18 67 205 177 151 9 0 1 3 0 0 0 0 0 0 0 0 0 0 0 0 0 0 0 0
0 0 0 0 0 0 386 1022 1052 877 491 319 316 300 214 90 33 34 50 33 132 83 53 1 0 0 1 1 0 0 0 0 0 0 0 0 0 0 0 0 0 0 0
16 10 1 0 0 0 35 1004 1089 913 611 321 277 289 263 155 15 0 28 53 71 129 25 2 1 1 1 0 0 0 0 0 0 0 0 0 0 0 2 0 0 0 0
3 3 1 0 0 0 0 216 927 929 685 509 345 307 322 205 62 23 9 66 122 113 119 41 3 1 1 0 0 0 0 0 0 0 0 0 0 0 1 0 0 0 0
0 0 0 0 0 0 0 0 237 787 766 407 362 335 333 331 165 20 50 30 80 178 287 89 6 1 1 1 2 1 1 1 0 0 0 0 0 0 0 1 0 0 0
0 0 0 0 0 0 0 0 0 296 897 587 430 389 336 446 223 62 120 102 111 141 276 238 48 3 1 1 2 1 0 0 1 1 0 0 0 0 0 1 1 0 0
0 0 0 0 0 0 0 0 0 0 253 950 572 486 487 480 384 136 236 279 202 265 258 251 128 27 2 2 1 1 1 0 2 0 0 0 0 0 0 0 0 0 0
0 0 0 0 0 0 0 0 0 4 7 296 955 548 662 578 397 378 353 326 356 400 285 290 206 28 2 3 2 1 1 0 0 0 0 0 0 0 0 0 0 0 0
0 0 1 1 0 0 0 0 0 30 0 213 498 1041 751 657 524 568 519 514 440 396 354 329 263 77 2 5 6 3 4 2 0 0 0 0 0 0 0 0 0 0 0
0 0 1 2 1 1 0 0 0 0 15 95 464 486 1191 819 656 617 711 689 495 453 431 301 273 180 54 21 21 5 6 10 2 3 0 0 0 0 0 0 0 0 0
1 2 3 2 3 3 3 2 2 0 53 111 433 351 614 774 675 642 672 678 539 466 440 402 229 215 122 53 16 21 9 33 20 0 1 0 0 0 0 0 0 0 0
2 2 2 3 3 2 3 4 4 1 1 445 357 363 434 642 707 646 648 621 549 521 361 378 289 179 128 46 20 6 43 32 31 1 1 0 0 0 0 0 0 0 0
1 2 2 2 3 1 2 2 2 3 2 408 690 552 614 705 675 511 409 489 482 461 367 226 194 159 142 48 14 3 24 46 67 73 6 0 0 0 0 0 0 0 0
1 1 2 1 3 2 2 3 5 6 4 1 0 0 271 531 486 305 249 219 210 127 133 91 73 54 50 15 1 0 2 36 107 67 28 16 11 0 0 0 0 0 0
1 0 0 2 2 2 1 3 6 7 10 8 6 1 0 103 380 204 126 129 74 63 45 13 3 0 2 2 0 0 0 1 102 72 53 7 16 0 0 0 0 0 0
0 0 0 0 1 1 1 3 4 5 3 2 4 2 2 2 25 112 91 62 57 28 1 0 2 3 1 2 0 0 0 1 39 76 46 18 0 0 0 0 0 0 0
0 0 0 0 0 1 1 3 4 2 2 2 4 5 3 1 0 43 89 62 49 11 0 2 2 1 0 0 0 0 0 0 4 43 16 3 0 0 0 0 0 0 0
0 0 0 0 1 1 1 1 3 2 2 4 4 5 6 5 1 1 23 23 10 2 2 2 2 1 1 3 0 0 0 0 0 5 8 13 0 0 0 0 0 0 0
0 0 0 0 1 1 0 1 1 1 1 3 5 5 5 4 1 1 0 1 1 2 2 2 1 1 1 1 0 0 0 0 0 0 0 0 0 0 0 0 0 0 0
0 0 0 0 0 0 0 0 1 1 1 2 3 4 4 4 4 1 2 6 6 5 0 0 1 1 1 0 0 0 1 1 0 0 0 0 0 0 0 0 0 0 0
0 0 0 0 0 0 0 0 0 0 1 3 3 3 3 3 4 5 1 0 0 4 6 10 5 0 0 0 0 0 1 2 0 0 1 0 0 0 0 0 0 0 0
CIN
-0 -0 -36 -3 -9 -21 -12 -14 -25 -33 -25 -50 -165 -72 -2 -1 -1 -0 -1 -2 -0 -1 -2 -1 -6 -0 -0 -2 -0 -0 -0 -0 -0 -0 -0 -0 -0 -0 -0 -0 -0 -0 -0
-0 -0 -0 -8 -3 -11 -8 -0 -10 -38 -41 -59 -242 -128 -113 -27 -1 -39 -17 -1 -1 -1 -0 -0 -1 -0 -0 -1 -0 -0 -0 -0 -0 -0 -0 -0 -0 -0 -0 -0 -0 -0 -0
-0 -0 -0 -0 -1 -0 -30 -16 -15 -39 -36 -88 -124 -57 -12 -116 -2 -2 -43 -2 -49 -51 -0 -0 -0 -0 -0 -0 -0 -0 -0 -0 -0 -0 -0 -0 -0 -0 -0 -0 -0 -0 -0
-0 -0 -0 -0 -21 -1 -0 -5 -13 -34 -48 -125 -99 -58 -124 -21 -53 -52 -17 -76 -91 -12 -38 -0 -1 -0 -0 -0 -0 -0 -0 -0 -0 -0 -0 -0 -0 -0 -0 -0 -0 -0 -0
-0 -0 -0 -0 -0 -16 -1 -0 -2 -26 -41 -98 -44 -5 -80 -79 -52 -35 -25 -3 -11 -17 -9 -1 -0 -0 -0 -0 -0 -0 -0 -0 -0 -0 -0 -0 -0 -0 -0 -0 -0 -0 -0
-0 -0 -0 -0 -0 -34 -2 -5 -0 -14 -47 -90 -42 -6 -31 -89 -92 -32 -46 -5 -1 -1 -4 -12 -0 -0 -0 -0 -0 -0 -0 -0 -0 -0 -0 -0 -0 -0 -0 -0 -0 -0 -0
-0 -0 -0 -0 -0 -0 -28 -1 -1 -5 -26 -62 -45 -20 -20 -84 -124 -83 -52 -92 -31 -23 -37 -3 -0 -0 -0 -0 -0 -0 -0 -0 -0 -0 -0 -0 -0 -0 -0 -0 -0 -0 -0
-2 -1 -0 -0 -0 -0 -153 -4 -0 -0 -15 -68 -72 -46 -35 -40 -197 -17 -95 -57 -94 -72 -77 -0 -0 -0 -0 -0 -0 -0 -0 -0 -0 -0 -0 -0 -0 -0 -2 -0 -0 -0 -0
-3 -2 -1 -0 -0 -0 -0 -75 -2 -0 -4 -20 -61 -51 -19 -23 -117 -185 -162 -41 -40 -8 -61 -63 -2 -0 -0 -0 -0 -0 -0 -0 -0 -0 -0 -0 -0 -0 -0 -0 -0 -0 -0
-0 -0 -0 -0 -0 -0 -0 -0 -123 -1 -2 -35 -34 -51 -22 -17 -31 -109 -103 -113 -53 -0 -2 -63 -47 -0 -0 -0 -0 -0 -0 -0 -0 -0 -0 -0 -0 -0 -0 -0 -0 -0 -0
-0 -0 -0 -0 -0 -0 -0 -0 -0 -82 -0 -23 -36 -40 -26 -1 -28 -59 -39 -45 -14 -2 -0 -1 -51 -0 -0 -0 -0 -0 -0 -0 -0 -0 -0 -0 -0 -0 -0 -0 -0 -0 -0
-0 -0 -0 -0 -0 -0 -0 -0 -0 -0 -59 -1 -21 -26 -20 -16 -8 -40 -5 -6 -19 -4 -1 -0 -2 -39 -0 -0 -0 -0 -0 -0 -0 -0 -0 -0 -0 -0 -0 -0 -0 -0 -0
-0 -0 -0 -0 -0 -0 -0 -0 -0 -50 -171 -32 -1 -34 -22 -16 -27 -24 -11 -5 -5 -0 -1 -1 -0 -44 -0 -1 -0 -0 -0 -0 -0 -0 -0 -0 -0 -0 -0 -0 -0 -0 -0
-0 -0 -0 -0 -0 -0 -0 -0 -0 -124 -0 -97 -6 -0 -16 -16 -31 -12 -18 -0 -1 -0 -0 -1 -8 -42 -2 -3 -23 -0 -5 -0 -0 -0 -0 -0 -0 -0 -0 -0 -0 -0 -0
-0 -0 -0 -0 -0 -0 -0 -0 -0 -0 -195 -179 -22 -33 -0 -4 -22 -21 -5 -1 -1 -1 -2 -4 -1 -3 -6 -9 -33 -46 -7 -41 -0 -0 -0 -0 -0 -0 -0 -0 -0 -0 -0
-1 -0 -0 -0 -0 -0 -0 -0 -0 -0 -196 -167 -51 -50 -8 -3 -20 -29 -7 -0 -0 -3 -2 -2 -2 -0 -5 -14 -29 -50 -32 -32 -46 -0 -0 -0 -0 -0 -0 -0 -0 -0 -0
-1 -0 -0 -0 -0 -0 -0 -0 -0 -0 -0 -64 -69 -61 -25 -7 -22 -27 -13 -1 -3 -2 -5 -1 -1 -0 -16 -40 -62 -67 -12 -34 -60 -1 -0 -0 -0 -0 -0 -0 -0 -0 -0
-0 -0 -0 -0 -0 -0 -0 -0 -0 -0 -0 -71 -5 -5 -1 -4 -20 -33 -33 -11 -3 -5 -6 -7 -14 -7 -6 -38 -91 -92 -29 -34 -26 -26 -76 -0 -92 -0 -0 -0 -0 -0 -0
-0 -0 -0 -0 -0 -0 -0 -0 -0 -0 -0 -0 -0 -0 -17 -4 -17 -47 -71 -47 -33 -81 -61 -58 -49 -31 -19 -47 -93 -90 -90 -28 -0 -22 -57 -65 -71 -0 -0 -0 -0 -0 -0
-0 -0 -0 -0 -0 -0 -0 -0 -0 -0 -0 -0 -0 -0 -0 -89 -0 -26 -54 -70 -62 -105 -145 -154 -0 -0 -108 -37 -0 -0 -0 -16 -0 -9 -17 -49 -45 -0 -0 -0 -0 -0 -0
-0 -0 -0 -0 -0 -0 -0 -0 -0 -0 -0 -0 -0 -0 -0 -0 -67 -66 -92 -114 -130 -165 -0 -0 -0 -0 -0 -48 -0 -0 -0 -0 -9 -7 -10 -25 -0 -0 -0 -0 -0 -0 -0
-0 -0 -0 -0 -0 -0 -0 -0 -0 -0 -0 -0 -0 -0 -0 -0 -0 -174 -127 -156 -140 -187 -0 -0 -0 -0 -0 -0 -0 -0 -0 -0 -12 -20 -42 -65 -63 -0 -0 -0 -0 -0 -0
-0 -0 -0 -0 -0 -0 -0 -0 -0 -0 -0 -0 -0 -0 -0 -0 -0 -0 -172 -173 -212 -0 -0 -0 -0 -0 -0 -0 -0 -0 -0 -0 -0 -50 -56 -51 -0 -0 -0 -0 -0 -0 -0
-0 -0 -0 -0 -0 -0 -0 -0 -0 -0 -0 -0 -0 -0 -0 -0 -0 -0 -0 -0 -0 -0 -0 -0 -0 -0 -0 -0 -0 -0 -0 -0 -0 -0 -0 -0 -0 -0 -0 -0 -0 -0 -0
-0 -0 -0 -0 -0 -0 -0 -0 -0 -0 -0 -0 -0 -0 -0 -0 -0 -0 -0 -0 -0 -0 -0 -0 -0 -0 -0 -0 -0 -0 -0 -0 -0 -0 -0 -0 -0 -0 -0 -0 -0 -0 -0
-0 -0 -0 -0 -0 -0 -0 -0 -0 -0 -0 -0 -0 -0 -0 -0 -0 -0 -0 -0 -0 -0 -0 -0 -0 -0 -0 -0 -0 -0 -0 -0 -0 -0 -4 -0 -0 -0 -0 -0 -0 -0 -0
Wind_Speed
23 20 20 17 15 17 17 17 16 16 16 17 16 17 18 21 19 19 15 17 17 10 7 5 4 4 3 5 7 9 9 8 10 10 11 12 12 12 12 13 13 14 14
26 22 20 21 18 19 22 19 17 17 18 21 20 19 19 21 25 20 20 17 20 15 11 8 7 5 3 4 6 7 9 7 8 7 9 10 10 9 10 11 11 12 12
28 28 23 22 18 20 21 21 19 18 19 17 17 22 25 23 29 25 24 21 20 18 14 11 9 7 5 5 6 6 8 5 5 7 9 10 9 8 8 8 9 9 10
31 29 28 25 23 20 20 20 20 19 18 17 18 23 27 21 31 30 24 23 25 22 18 14 11 10 7 8 7 6 5 3 3 3 7 17 16 8 9 6 7 8 9
34 30 30 27 26 21 21 22 21 20 18 18 18 19 24 25 24 24 30 24 23 23 21 20 15 13 10 8 8 8 7 4 1 2 1 7 10 8 9 7 6 6 7
26 26 25 28 28 24 22 22 23 22 19 18 18 19 18 19 27 16 29 31 26 26 23 21 19 16 13 10 10 9 10 6 2 1 0 3 5 6 5 6 5 5 6
23 25 26 26 29 29 23 22 24 25 21 19 19 18 20 18 17 15 25 30 30 30 27 23 21 19 17 14 12 11 10 10 6 4 2 3 5 9 5 6 7 5 5
23 26 26 26 26 28 31 24 24 25 24 22 21 19 18 19 18 20 18 17 33 32 30 29 27 24 22 19 14 12 11 10 10 7 4 3 7 8 10 5 5 6 3
27 29 28 28 28 29 31 33 25 26 26 25 21 20 18 19 19 19 19 21 24 33 31 30 30 28 24 21 18 16 13 12 12 11 8 7 9 11 11 8 4 3 3
31 31 31 30 30 31 32 33 33 28 26 25 25 23 21 19 21 20 19 17 16 33 32 33 31 29 27 23 20 20 15 13 13 13 11 10 9 10 11 10 7 6 6
32 33 34 34 34 34 35 35 36 35 28 26 25 25 24 22 20 22 19 16 15 26 29 30 31 32 30 25 23 21 18 16 15 14 13 12 11 12 11 12 9 8 7
35 35 35 35 37 37 37 38 38 39 38 27 27 27 23 23 23 23 20 17 16 16 18 28 30 33 32 30 26 24 21 18 18 16 14 14 12 13 13 13 12 12 10
36 37 37 38 37 39 39 40 42 41 39 38 29 27 25 25 26 24 24 22 20 18 16 19 31 32 34 33 30 27 25 21 20 19 18 16 15 14 15 16 16 14 13
36 37 38 38 39 39 40 41 42 43 38 38 36 31 26 26 27 24 24 25 23 22 20 19 20 32 35 35 33 31 28 25 22 21 20 19 18 16 16 17 17 16 14
37 38 38 39 39 40 41 41 42 43 38 38 37 36 30 27 26 26 26 26 26 24 24 23 23 20 34 38 34 33 31 28 25 23 22 21 20 18 17 16 17 17 16
36 37 37 37 39 39 41 42 42 42 40 36 37 35 33 29 28 28 29 28 28 26 25 26 25 24 23 25 37 35 33 30 28 26 24 22 23 22 20 18 17 17 17
33 33 33 35 37 37 38 40 40 40 40 39 33 33 34 32 29 29 32 32 31 30 29 29 30 29 27 27 30 36 36 34 32 28 25 24 24 23 23 21 21 20 18
25 27 29 32 32 34 35 36 35 35 35 38 34 31 33 33 31 30 33 33 32 32 32 32 31 34 32 31 31 33 41 38 36 32 28 26 24 22 23 22 23 23 23
20 22 23 26 27 27 30 29 30 30 32 31 31 33 36 32 31 32 33 35 34 34 34 35 36 37 38 34 33 35 38 42 39 35 31 28 26 24 24 24 24 24 25
15 16 21 19 20 23 23 22 23 25 28 31 33 34 34 36 33 32 32 34 34 36 36 38 39 39 42 37 34 37 39 43 42 37 34 30 28 25 25 25 24 25 24
15 15 15 18 20 21 21 20 21 22 26 28 30 32 33 35 34 32 32 33 35 36 39 41 42 41 42 43 36 37 40 43 44 39 36 31 30 26 26 26 26 26 25
16 21 19 14 19 20 19 19 20 23 24 24 26 28 31 35 35 33 34 36 36 38 40 41 43 42 39 37 39 37 42 45 43 40 36 33 30 29 27 27 27 29 27
19 24 20 21 27 28 22 19 20 21 20 20 22 23 25 26 30 35 39 37 38 38 41 43 46 49 42 39 36 39 46 46 44 39 36 33 29 29 28 27 27 27 27
23 26 28 28 29 29 27 25 22 20 19 19 19 20 21 23 23 27 31 34 38 42 46 46 48 46 44 34 35 44 43 46 44 38 33 32 28 28 29 29 29 29 29
25 27 23 22 21 20 19 28 29 25 21 21 21 21 21 21 22 23 23 25 28 32 38 40 43 42 38 34 34 40 43 41 40 38 31 31 31 32 31 31 31 30 32
22 21 25 26 25 20 21 20 19 28 27 26 25 24 23 23 22 23 24 24 25 27 30 32 32 35 37 32 32 36 38 37 38 36 35 34 34 34 34 33 33 31 31
Wind_Direction
256 259 252 245 234 233 230 224 224 222 222 233 237 241 246 252 256 255 254 247 252 243 234 241 211 155 125 105 89 92 85 70 79 55 42 26 31 61 67 76 70 72 77
252 253 256 252 241 237 240 234 226 221 226 245 237 241 250 253 256 255 255 248 249 249 240 243 208 190 171 130 116 102 97 75 93 63 44 22 31 60 88 81 77 75 81
255 253 254 254 243 241 237 237 233 225 230 232 238 241 250 258 253 254 254 252 248 250 243 236 231 209 208 181 147 130 118 83 97 113 7 1 24 65 83 91 94 80 91
255 256 253 253 252 247 243 237 236 235 231 228 230 241 249 255 251 253 255 254 249 250 246 241 237 224 226 186 177 161 147 85 91 97 143 312 324 35 36 91 109 97 107
254 254 255 255 254 251 247 243 241 235 233 224 230 233 247 253 255 254 250 252 249 249 247 246 240 239 231 229 198 179 176 166 88 123 118 333 333 355 10 40 95 115 125
252 255 254 255 257 253 252 248 242 241 233 225 225 226 227 241 255 258 250 251 251 249 248 242 244 244 240 225 217 199 188 193 238 192 128 319 326 349 18 13 64 106 125
260 257 261 259 257 256 253 250 247 246 238 230 226 225 233 227 226 238 257 252 247 249 247 240 239 242 241 243 237 224 207 203 215 227 242 288 302 323 347 359 11 45 71
265 264 264 265 263 260 256 254 251 248 245 242 233 225 227 237 235 228 261 254 251 247 248 244 246 247 249 249 245 237 232 217 218 233 223 261 289 300 315 335 356 9 56
271 267 268 266 265 264 262 259 257 253 248 246 237 232 231 233 237 245 253 267 262 246 245 247 247 247 248 247 245 246 233 221 216 231 240 241 282 289 299 307 326 342 10
275 272 269 269 268 267 266 263 262 257 252 249 248 242 236 233 244 254 260 247 246 252 247 248 249 246 246 246 245 250 241 230 224 227 236 235 259 276 284 291 295 305 317
278 275 272 272 270 268 266 264 262 260 256 251 247 247 245 245 241 248 256 250 239 257 253 249 249 249 246 243 244 247 246 232 229 220 233 235 239 263 274 281 285 293 303
277 277 275 274 271 269 267 264 263 260 258 255 252 249 244 239 241 240 245 252 248 249 234 253 253 252 249 246 243 245 247 239 234 228 228 236 240 240 265 271 273 286 294
282 278 275 273 273 270 269 266 263 262 258 257 255 251 245 245 245 238 233 242 249 249 248 236 253 256 251 249 247 245 247 243 237 231 231 235 241 240 253 265 276 278 285
284 281 276 274 274 273 270 268 264 265 257 256 255 255 246 248 249 244 236 236 242 246 247 250 245 257 255 251 249 249 248 249 244 238 235 238 243 240 247 259 264 274 278
288 283 279 276 276 275 272 269 266 264 258 255 254 255 258 251 250 243 243 242 244 246 252 253 257 254 257 253 246 248 250 250 249 244 240 240 240 237 244 255 262 264 271
293 288 283 281 277 276 274 271 267 264 266 254 255 257 259 256 253 251 246 246 246 246 251 255 259 259 259 244 247 248 250 249 248 248 242 243 240 245 239 242 257 257 262
294 292 288 283 281 280 277 272 269 266 263 260 255 257 259 259 257 255 254 250 250 253 253 259 263 263 262 256 241 243 250 250 249 248 246 243 248 240 252 245 246 259 252
288 292 292 290 288 286 281 276 272 268 266 262 260 258 259 261 259 257 255 256 255 254 257 258 263 266 268 265 254 237 248 251 251 249 246 244 241 235 243 254 254 254 261
298 287 282 288 292 295 288 281 276 273 267 265 264 267 264 260 261 257 255 256 258 259 259 261 264 268 271 268 259 243 241 248 250 249 248 247 245 240 239 254 260 261 262
308 304 302 293 302 298 296 293 286 279 274 269 269 270 270 268 262 260 256 258 260 261 262 263 266 270 272 275 268 242 242 244 249 249 250 245 248 245 238 247 257 262 264
326 323 315 319 316 312 306 305 296 289 285 281 276 274 273 270 268 260 259 262 264 267 266 266 267 270 275 277 273 238 240 242 246 249 250 250 245 246 239 241 255 261 269
347 347 341 334 335 331 322 318 313 301 291 287 281 279 276 270 266 265 264 264 267 267 269 269 269 272 274 277 271 246 239 243 246 247 251 253 247 241 241 237 249 265 266
356 357 359 353 359 357 344 333 322 321 306 309 294 289 289 284 275 269 267 267 268 271 273 273 274 275 278 274 265 250 247 237 247 250 251 254 248 249 250 245 248 258 265
354 354 357 2 3 1 357 352 337 325 327 327 319 309 302 294 296 284 279 277 275 274 273 276 274 277 276 274 267 252 248 241 247 251 253 255 254 253 256 259 258 260 262
350 353 355 357 360 4 7 2 359 350 345 340 335 329 320 312 302 303 306 297 297 290 283 284 279 278 276 274 263 254 249 245 246 247 251 254 255 257 259 263 265 263 264
344 347 349 351 351 355 0 359 0 3 3 4 357 347 341 334 329 320 312 313 308 316 312 306 296 286 280 282 267 256 252 253 247 242 250 253 256 259 262 265 266 266 266